TimeCDT,TemperatureF,Dew PointF,Humidity,Sea Level PressureIn,VisibilityMPH,Wind Direction,Wind SpeedMPH,Gust SpeedMPH,PrecipitationIn,Events,Conditions,WindDirDegrees,DateUTC
12:53 AM,57.9,39.0,49,29.91,10.0,North,8.1,-,N/A,,Clear,360,2012-10-02 05:53:00
1:29 AM,55.4,39.2,54,29.93,10.0,North,8.1,-,N/A,,Squalls,10,2012-10-02 06:29:00
1:53 AM,54.0,39.0,57,29.92,10.0,North,6.9,-,N/A,,Clear,360,2012-10-02 06:53:00
3:53 AM,53.1,37.0,55,29.91,10.0,North,8.1,-,N/A,,Clear,360,2012-10-02 08:53:00
4:53 AM,51.1,36.0,56,29.93,10.0,North,6.9,-,N/A,,Clear,350,2012-10-02 09:53:00
5:53 AM,46.9,36.0,66,29.94,10.0,North,4.6,-,N/A,,Clear,350,2012-10-02 10:53:00
6:53 AM,43.0,36.0,76,29.94,10.0,Calm,Calm,-,N/A,,Clear,0,2012-10-02 11:53:00
7:53 AM,45.0,37.0,74,29.96,10.0,North,4.6,-,N/A,,Clear,10,2012-10-02 12:53:00
8:53 AM,54.0,35.1,49,29.96,10.0,North,6.9,-,N/A,,Clear,350,2012-10-02 13:53:00
9:53 AM,59.0,37.0,44,29.96,10.0,North,6.9,-,N/A,,Clear,360,2012-10-02 14:53:00
10:53 AM,64.0,41.0,43,29.96,10.0,Variable,3.5,-,N/A,,Clear,0,2012-10-02 15:53:00
11:53 AM,70.0,44.1,39,29.94,10.0,NW,6.9,-,N/A,,Clear,320,2012-10-02 16:53:00
12:53 PM,73.9,41.0,30,29.93,10.0,North,8.1,-,N/A,,Clear,10,2012-10-02 17:53:00
1:53 PM,75.9,39.9,27,29.90,10.0,North,8.1,-,N/A,,Clear,350,2012-10-02 18:53:00
2:53 PM,75.0,41.0,29,29.88,10.0,Variable,3.5,-,N/A,,Clear,0,2012-10-02 19:53:00
3:53 PM,75.9,41.0,29,29.86,9.0,Variable,3.5,-,N/A,,Clear,0,2012-10-02 20:53:00
4:53 PM,77.0,39.9,26,29.85,10.0,NNW,5.8,-,N/A,,Clear,330,2012-10-02 21:53:00
5:53 PM,75.0,41.0,29,29.86,10.0,WNW,4.6,-,N/A,,Clear,300,2012-10-02 22:53:00
7:53 PM,55.9,44.1,64,29.88,10.0,Calm,Calm,-,N/A,,Clear,0,2012-10-03 00:53:00
8:53 PM,52.0,43.0,71,29.90,10.0,Calm,Calm,-,N/A,,Clear,0,2012-10-03 01:53:00
9:53 PM,46.9,39.9,77,29.91,10.0,Calm,Calm,-,N/A,,Clear,0,2012-10-03 02:53:00
10:53 PM,46.0,39.9,79,29.91,10.0,Calm,Calm,-,N/A,,Clear,0,2012-10-03 03:53:00
11:53 PM,45.0,39.9,82,29.90,10.0,Calm,Calm,-,N/A,,Clear,0,2012-10-03 04:53:00